[[{"header":{"parameterUnit":"m.s-1","parameterCategory":1,"la1":30.2991,"la2":30.254,"lo1":-89.0895,"lo2":-89.0444,"dy":0.0017,"dx":0.0017,"nx":28,"ny":28,"refTime":"2025-07-17T09:00:00:Z","depth":0,"parameterNumber":2,"parameterNumberName":"U-component_of_WINDS"},"data":[0,0,0,0,0,0,0,0,0,0,0,0,0,0,0,0,0,0,0,0,0,0,0,0,0,0,0,0,0,0,0,0,0,0,0,0,0,0,0,0,0,0,0,0,0,0,0,0,0,0,0,0,0,0,0,0,0,0,1.3037,1.3037,0,1.302,1.3019,1.3019,1.2954,1.2952,1.2951,1.2949,1.2932,1.2933,1.2934,0,0,0,0,0,0,0,0,0,0,0,0,0,1.3013,1.3014,1.3037,1.3037,1.3037,1.302,1.3019,1.3019,1.2954,1.2952,1.295,1.2949,1.2932,1.2933,1.2934,0,0,0,0,0,0,0,0,0,0,0,0,0,1.3012,1.3014,1.3037,1.3002,1.2999,1.302,1.3019,1.3019,1.2954,1.2952,1.295,1.2948,1.2931,1.2933,1.2934,1.2988,0,0,1.2938,1.2939,0,0,0,0,0,0,0,0,1.3012,1.3013,1.3007,1.3004,1.3001,1.2986,1.3004,1.3009,1.2955,1.2971,1.2949,1.2947,1.2952,1.2952,1.2953,1.2987,1.2986,1.2939,1.2939,1.294,1.294,0,0,0,0,0,0,0,1.3013,1.3014,1.303,1.3007,1.3003,1.2987,1.2984,1.3005,1.2974,1.297,1.2965,1.2964,1.295,1.2952,1.2952,1.2986,1.2939,1.294,1.2941,1.2941,1.306,1.3062,0,0,0,0,0,0,1.3018,1.3014,1.3031,1.303,1.3001,1.2989,1.2986,1.2993,1.2974,1.2969,1.2966,1.2961,1.2951,1.2951,1.2952,1.3012,1.294,1.2941,1.2942,1.3058,1.3061,1.3063,0,0,0,0,0,0,1.3017,1.302,1.3031,1.3021,1.3021,1.2992,1.3,1.2994,1.2996,1.2971,1.2965,1.2974,1.2949,1.295,1.2979,1.3011,1.2942,1.2943,1.3055,1.3059,1.3062,1.3134,0,0,0,0,0,0,1.3017,1.302,1.3041,1.3021,1.3022,1.306,1.3002,1.2995,1.2999,1.2992,1.2977,1.2972,1.2947,1.2977,1.298,1.3011,1.2944,1.3052,1.3057,1.3061,1.3129,1.314,1.3149,0,0,0,0,0,1.3016,1.3062,1.3042,1.3044,1.3047,1.3062,1.3062,1.3032,1.3002,1.3022,1.3005,1.2973,1.3006,1.298,1.2983,1.3016,1.305,1.3056,1.3061,1.3125,1.3138,1.3149,0,0,0,0,0,0,1.3087,1.3059,1.3037,1.3078,1.3072,1.3051,1.3075,1.3047,1.3051,1.3044,1.3007,1.3004,1.3038,1.3029,1.3001,1.3065,1.3023,1.3029,1.307,1.3083,1.3092,1.3094,1.2946,0,0,0,0,0,1.3107,1.3122,1.3097,1.3135,1.3134,1.3105,1.311,1.3087,1.3081,1.3078,1.3064,1.3058,1.3067,1.3074,1.3081,1.3127,1.3122,1.315,1.316,1.3168,1.3175,1.3196,1.3208,1.308,1.308,1.308,0,0,1.315,1.3136,1.3148,1.3149,1.3142,1.3158,1.3104,1.3123,1.3134,1.3081,1.3108,1.3096,1.3088,1.3125,1.3141,1.3119,1.3208,1.3175,1.3182,1.3183,1.3203,1.3215,1.3226,1.3084,1.3083,1.3083,0,0,1.3235,1.3227,1.3257,1.3251,1.3241,1.3221,1.3228,1.321,1.32,1.3226,1.3186,1.3198,1.3215,1.321,1.3209,1.3289,1.3259,1.3292,1.3346,1.3368,1.3378,1.3386,1.3415,1.3425,1.3298,1.3298,1.3299,0,1.329,1.3312,1.3277,1.3298,1.3299,1.3251,1.3281,1.3277,1.327,1.3271,1.3246,1.3265,1.3255,1.329,1.3309,1.3311,1.3317,1.3295,1.3379,1.3387,1.3395,1.3422,1.3432,1.3303,1.3302,1.3302,1.3301,0,1.3379,1.3394,1.342,1.3413,1.3417,1.3443,1.3411,1.3419,1.3395,1.3378,1.3403,1.339,1.3392,1.3399,1.3376,1.343,1.3416,1.3386,1.3342,1.3412,1.3436,1.3446,1.3308,1.3307,1.3306,1.3305,0,0,1.3512,1.3483,1.3493,1.3489,1.3472,1.3483,1.3506,1.3508,1.3515,1.351,1.3528,1.3542,1.3513,1.3512,1.3488,1.3507,1.357,1.3474,1.3473,1.3492,1.3627,1.3651,1.3664,1.3549,1.3551,1.3552,1.3628,0,1.3593,1.363,1.3598,1.3642,1.3655,1.3607,1.3626,1.3618,1.3601,1.3609,1.359,1.3601,1.3562,1.3561,1.3578,1.3559,1.3597,1.3553,1.3565,1.3566,1.357,1.3676,1.3702,1.3775,1.3637,1.3639,1.364,0,1.3694,1.3693,1.3738,1.3716,1.372,1.3739,1.3736,1.3745,1.3733,1.372,1.3718,1.3687,1.3706,1.3663,1.3688,1.3659,1.3662,1.3653,1.3655,1.3656,1.3609,1.3681,1.3797,1.3808,1.3655,1.3654,1.3653,0,1.3787,1.3796,1.3824,1.3821,1.3797,1.3811,1.3801,1.3787,1.379,1.3787,1.3788,1.3788,1.3789,1.3789,1.3759,1.373,1.3788,1.3742,1.3777,1.3778,1.3794,1.3793,1.3913,1.3794,1.3793,1.3793,1.3793,0,1.3882,1.3912,1.3865,1.3882,1.3912,1.3874,1.3905,1.389,1.3878,1.3891,1.3849,1.3862,1.382,1.3828,1.3804,1.3829,1.3829,1.3818,1.3812,1.3823,1.3824,1.3825,1.382,1.3796,1.3795,1.3795,1.3794,0,1.3993,1.3962,1.3989,1.3963,1.3956,1.398,1.3957,1.3971,1.395,1.3967,1.3968,1.3936,1.3943,1.3912,1.3913,1.3897,1.3934,1.3919,1.3938,1.3934,1.3971,1.3968,1.4096,1.411,1.3982,1.3983,1.3984,0,1.4056,1.4077,1.4052,1.4057,1.405,1.4059,1.406,1.4022,1.4025,1.4012,1.4028,1.4031,1.4031,1.4044,1.4021,1.4021,1.4006,1.405,1.4006,1.4015,1.4007,1.4006,1.4008,1.406,1.4062,1.4063,1.4064,0,1.4173,1.4156,1.416,1.4158,1.416,1.4157,1.4151,1.4157,1.4116,1.4121,1.4127,1.4128,1.4128,1.4132,1.4126,1.4116,1.4083,1.4078,1.4086,1.4098,1.4109,1.4104,1.3964,1.4076,1.4075,1.4074,1.4073,1.4073,1.4262,1.4278,1.4262,1.4267,1.4257,1.4252,1.4263,1.4243,1.4247,1.4244,1.4221,1.4231,1.4216,1.4206,1.4198,1.4205,1.4184,1.4196,1.4199,1.4203,1.4209,1.4106,1.4203,1.4203,1.4203,1.4202,1.4202,0,1.4376,1.4363,1.4368,1.4359,1.4363,1.433,1.432,1.4326,1.4335,1.4324,1.4324,1.433,1.4332,1.4307,1.4306,1.4316,1.4301,1.4317,1.4317,1.4314,1.4228,1.4221,1.4329,1.4329,1.4329,1.4329,1.4329,1.4329,1.4437,1.4461,1.4442,1.4461,1.4447,1.4456,1.4453,1.4447,1.4438,1.4446,1.4447,1.443,1.4413,1.4409,1.4409,1.4402,1.4404,1.4425,1.4413,1.4333,1.4321,1.4309,1.4302,1.4426,1.4426,1.4498,1.4499,1.4499]},{"header":{"parameterUnit":"m.s-1","parameterCategory":1,"la1":30.2991,"la2":30.254,"lo1":-89.0895,"lo2":-89.0444,"dy":0.0017,"dx":0.0017,"nx":28,"ny":28,"refTime":"2025-07-17T09:00:00:Z","depth":0,"parameterNumber":3,"parameterNumberName":"V-component_of_WINDS"},"data":[0,0,0,0,0,0,0,0,0,0,0,0,0,0,0,0,0,0,0,0,0,0,0,0,0,0,0,0,0,0,0,0,0,0,0,0,0,0,0,0,0,0,0,0,0,0,0,0,0,0,0,0,0,0,0,0,0,0,-2.2723,-2.2724,0,-2.2843,-2.2844,-2.2845,-2.2856,-2.2855,-2.2853,-2.2852,-2.2983,-2.2987,-2.2992,0,0,0,0,0,0,0,0,0,0,0,0,0,-2.2512,-2.2516,-2.2723,-2.2724,-2.2726,-2.2842,-2.2844,-2.2846,-2.2856,-2.2854,-2.2853,-2.2851,-2.2981,-2.2987,-2.2993,0,0,0,0,0,0,0,0,0,0,0,0,0,-2.2615,-2.2517,-2.2722,-2.2745,-2.2748,-2.2842,-2.2844,-2.2846,-2.2856,-2.2854,-2.2852,-2.2851,-2.298,-2.2986,-2.2993,-2.3076,0,0,-2.3015,-2.3018,0,0,0,0,0,0,0,0,-2.2609,-2.2623,-2.274,-2.2743,-2.2747,-2.2832,-2.2818,-2.2924,-2.2857,-2.2815,-2.2852,-2.285,-2.2935,-2.2945,-2.2972,-2.3082,-2.3088,-2.3015,-2.302,-2.3023,-2.3025,0,0,0,0,0,0,0,-2.2602,-2.2618,-2.277,-2.2742,-2.2746,-2.2752,-2.2764,-2.2838,-2.2885,-2.2819,-2.282,-2.2834,-2.2937,-2.2966,-2.2976,-2.309,-2.3015,-2.3022,-2.3026,-2.3029,-2.3277,-2.3279,0,0,0,0,0,0,-2.2589,-2.2612,-2.2767,-2.2774,-2.2672,-2.2757,-2.2771,-2.2807,-2.2884,-2.2894,-2.2835,-2.2834,-2.2955,-2.2967,-2.298,-2.3084,-2.3023,-2.3029,-2.3033,-2.3275,-2.3278,-2.328,0,0,0,0,0,0,-2.2585,-2.2603,-2.2762,-2.2693,-2.2714,-2.2763,-2.2803,-2.281,-2.2839,-2.2896,-2.2906,-2.2856,-2.2954,-2.297,-2.3052,-2.3089,-2.3033,-2.3039,-2.3272,-2.3276,-2.3279,-2.3291,0,0,0,0,0,0,-2.2579,-2.2601,-2.2631,-2.2694,-2.2717,-2.2829,-2.2805,-2.2814,-2.2851,-2.285,-2.2918,-2.2927,-2.2953,-2.3042,-2.3059,-2.3097,-2.3044,-2.3269,-2.3274,-2.3278,-2.3288,-2.3294,-2.33,0,0,0,0,0,-2.2571,-2.2631,-2.2632,-2.2651,-2.2755,-2.2831,-2.2845,-2.2871,-2.2853,-2.2885,-2.2922,-2.2925,-2.3082,-2.305,-2.307,-2.3111,-2.3267,-2.3272,-2.3277,-2.3285,-2.3293,-2.33,0,0,0,0,0,0,-2.2573,-2.2639,-2.2642,-2.2723,-2.2771,-2.2832,-2.2873,-2.2878,-2.2935,-2.2932,-2.2965,-2.298,-2.3061,-2.3094,-2.3058,-2.3197,-2.3173,-2.3183,-2.3172,-2.318,-2.3186,-2.3177,-2.305,0,0,0,0,0,-2.2582,-2.2636,-2.2692,-2.2758,-2.2782,-2.2823,-2.2857,-2.2873,-2.2926,-2.2947,-2.299,-2.3043,-2.3104,-2.3144,-2.3204,-2.3293,-2.331,-2.3331,-2.3337,-2.3342,-2.335,-2.3403,-2.3414,-2.3298,-2.3298,-2.3298,0,0,-2.2603,-2.2646,-2.2678,-2.276,-2.2799,-2.2856,-2.284,-2.2901,-2.2946,-2.2957,-2.3036,-2.307,-2.3132,-2.3218,-2.3259,-2.3249,-2.3386,-2.3349,-2.3353,-2.3358,-2.341,-2.3421,-2.343,-2.3301,-2.3301,-2.33,0,0,-2.267,-2.2707,-2.2767,-2.2806,-2.2865,-2.2893,-2.2907,-2.2969,-2.2991,-2.3071,-2.3081,-2.3136,-2.324,-2.3285,-2.3321,-2.3408,-2.3414,-2.3427,-2.346,-2.3511,-2.352,-2.3529,-2.3562,-2.3573,-2.3434,-2.3434,-2.3434,0,-2.2689,-2.2773,-2.2798,-2.2859,-2.2896,-2.2907,-2.297,-2.3008,-2.3085,-2.3112,-2.3099,-2.3231,-2.3274,-2.3372,-2.3393,-2.3421,-2.3442,-2.3419,-2.3516,-2.3525,-2.3533,-2.3565,-2.3578,-2.3436,-2.3435,-2.3435,-2.3435,0,-2.2795,-2.2854,-2.2896,-2.2967,-2.3009,-2.3071,-2.3108,-2.3148,-2.3161,-2.3191,-2.3275,-2.3326,-2.3397,-2.3422,-2.3436,-2.3523,-2.3515,-2.3509,-2.3486,-2.3545,-2.3576,-2.3588,-2.3437,-2.3437,-2.3437,-2.3436,0,0,-2.2865,-2.295,-2.2965,-2.2999,-2.3066,-2.3113,-2.3178,-2.3245,-2.328,-2.3333,-2.339,-2.3479,-2.3474,-2.3515,-2.3535,-2.358,-2.3648,-2.3569,-2.3571,-2.3583,-2.3751,-2.3756,-2.3769,-2.3653,-2.3655,-2.3657,-2.3746,0,-2.2941,-2.3052,-2.3077,-2.3174,-2.323,-2.3243,-2.33,-2.3349,-2.3379,-2.3434,-2.347,-2.3533,-2.352,-2.3546,-2.359,-2.363,-2.3683,-2.3624,-2.3709,-2.3712,-2.3693,-2.3785,-2.379,-2.3871,-2.3758,-2.376,-2.3762,0,-2.3043,-2.3097,-2.3199,-2.326,-2.3285,-2.3335,-2.34,-2.3451,-2.3509,-2.3529,-2.3575,-2.3591,-2.3663,-2.3636,-2.3737,-2.3696,-2.3733,-2.3758,-2.3762,-2.3772,-2.3741,-2.3799,-2.3898,-2.3911,-2.3781,-2.3779,-2.3778,0,-2.3086,-2.3184,-2.3258,-2.3287,-2.336,-2.3395,-2.3428,-2.3483,-2.3523,-2.3582,-2.3609,-2.3675,-2.3713,-2.3766,-2.3801,-2.3778,-2.39,-2.3875,-2.3921,-2.392,-2.3946,-2.3944,-2.4054,-2.3968,-2.3968,-2.3968,-2.3967,0,-2.3168,-2.3231,-2.3279,-2.3324,-2.3396,-2.3426,-2.3497,-2.3531,-2.3581,-2.3636,-2.3652,-2.3705,-2.3747,-2.3806,-2.3835,-2.3916,-2.3932,-2.3952,-2.3959,-2.3951,-2.3949,-2.3976,-2.3972,-2.3971,-2.397,-2.397,-2.3969,0,-2.3228,-2.3262,-2.3344,-2.3407,-2.3425,-2.3475,-2.353,-2.3577,-2.3609,-2.3679,-2.3697,-2.3748,-2.3819,-2.3859,-2.3949,-2.3968,-2.4059,-2.4062,-2.4038,-2.4041,-2.4085,-2.4081,-2.4217,-2.4238,-2.4137,-2.4138,-2.4139,0,-2.3278,-2.3326,-2.3394,-2.3431,-2.3464,-2.3523,-2.3564,-2.3597,-2.3639,-2.371,-2.3749,-2.3821,-2.3879,-2.3993,-2.404,-2.411,-2.4116,-2.4159,-2.4127,-2.4118,-2.4119,-2.4116,-2.4123,-2.4165,-2.4166,-2.4167,-2.4167,0,-2.3365,-2.338,-2.3435,-2.3499,-2.3546,-2.3598,-2.365,-2.368,-2.3723,-2.377,-2.3841,-2.3887,-2.3978,-2.405,-2.4124,-2.4162,-2.4174,-2.4177,-2.4192,-2.4184,-2.4169,-2.418,-2.4055,-2.4174,-2.4173,-2.4173,-2.4172,-2.4172,-2.3422,-2.3466,-2.3521,-2.3584,-2.3627,-2.3675,-2.3723,-2.376,-2.3819,-2.3894,-2.3911,-2.3987,-2.4048,-2.4148,-2.4188,-2.4251,-2.4243,-2.4264,-2.427,-2.4274,-2.4277,-2.4158,-2.4265,-2.4264,-2.4264,-2.4264,-2.4264,0,-2.3511,-2.3547,-2.3604,-2.3676,-2.3726,-2.373,-2.3788,-2.3831,-2.3897,-2.3951,-2.4008,-2.4092,-2.4163,-2.4216,-2.4289,-2.433,-2.4337,-2.4348,-2.4346,-2.4355,-2.4278,-2.4259,-2.4341,-2.4341,-2.4341,-2.4341,-2.4341,-2.4341,-2.3563,-2.3638,-2.366,-2.3759,-2.3796,-2.3868,-2.3901,-2.3948,-2.3991,-2.4083,-2.4141,-2.4174,-2.423,-2.4307,-2.4374,-2.4388,-2.4415,-2.4426,-2.4441,-2.4368,-2.436,-2.4352,-2.4334,-2.4431,-2.4431,-2.4513,-2.4514,-2.4514]}]]